owner,sensor,date,latitude,longitude,vertical_datum,sea_water_temperature,qcFlag
Shell,ioos:station:wmo:42864:1,2021-02-01T00:04:00Z,26.3117,-94.4039,11.7,24.1,11111222
Shell,ioos:station:wmo:42864:1,2021-02-01T00:14:00Z,26.3117,-94.4039,11.7,24.1,11111222
Shell,ioos:station:wmo:42864:1,2021-02-01T00:24:00Z,26.3117,-94.4039,11.7,24.1,11111222
Shell,ioos:station:wmo:42864:1,2021-02-01T00:34:00Z,26.3117,-94.4039,11.6,24.1,11111222
Shell,ioos:station:wmo:42864:1,2021-02-01T00:44:00Z,26.3117,-94.4039,11.6,24.1,11111222
Shell,ioos:station:wmo:42864:1,2021-02-01T00:54:00Z,26.3117,-94.4039,11.6,24.1,11111222
Shell,ioos:station:wmo:42864:1,2021-02-01T01:04:00Z,26.3117,-94.4039,11.5,24.1,11111222
Shell,ioos:station:wmo:42864:1,2021-02-01T01:14:00Z,26.3117,-94.4039,11.6,24.1,11111222
Shell,ioos:station:wmo:42864:1,2021-02-01T01:24:00Z,26.3117,-94.4039,11.7,24.1,11111222
Shell,ioos:station:wmo:42864:1,2021-02-01T01:34:00Z,26.3117,-94.4039,11.7,24.1,11111222
Shell,ioos:station:wmo:42864:1,2021-02-01T01:44:00Z,26.3117,-94.4039,11.7,24.1,11111222
Shell,ioos:station:wmo:42864:1,2021-02-01T01:55:00Z,26.3117,-94.4039,11.6,24.1,11111222
Shell,ioos:station:wmo:42864:1,2021-02-01T02:05:00Z,26.3117,-94.4039,11.6,24.1,11111222
Shell,ioos:station:wmo:42864:1,2021-02-01T02:15:00Z,26.3117,-94.4039,11.6,24.1,11111222
Shell,ioos:station:wmo:42864:1,2021-02-01T02:25:00Z,26.3117,-94.4039,11.5,24.1,11111222
Shell,ioos:station:wmo:42864:1,2021-02-01T02:35:00Z,26.3117,-94.4039,11.5,24.1,11111222
Shell,ioos:station:wmo:42864:1,2021-02-01T02:45:00Z,26.3117,-94.4039,11.5,24.1,11111222
Shell,ioos:station:wmo:42864:1,2021-02-01T02:55:00Z,26.3117,-94.4039,11.5,24.1,11111222
Shell,ioos:station:wmo:42864:1,2021-02-01T03:05:00Z,26.3117,-94.4039,11.5,24.0,11111222
Shell,ioos:station:wmo:42864:1,2021-02-01T03:15:00Z,26.3117,-94.4039,11.6,24.0,11111222
Shell,ioos:station:wmo:42864:1,2021-02-01T03:25:00Z,26.3117,-94.4039,11.6,24.0,11111222
Shell,ioos:station:wmo:42864:1,2021-02-01T03:35:00Z,26.3117,-94.4039,11.5,24.0,11111222
Shell,ioos:station:wmo:42864:1,2021-02-01T03:45:00Z,26.3117,-94.4039,11.7,24.0,11111222
Shell,ioos:station:wmo:42864:1,2021-02-01T03:55:00Z,26.3117,-94.4039,11.7,24.0,11111222
Shell,ioos:station:wmo:42864:1,2021-02-01T04:05:00Z,26.3117,-94.4039,11.5,24.0,11111222
Shell,ioos:station:wmo:42864:1,2021-02-01T04:15:00Z,26.3117,-94.4039,11.7,23.9,11111222
Shell,ioos:station:wmo:42864:1,2021-02-01T04:25:00Z,26.3117,-94.4039,11.6,23.9,11111222
Shell,ioos:station:wmo:42864:1,2021-02-01T04:35:00Z,26.3117,-94.4039,11.7,23.9,11111222
Shell,ioos:station:wmo:42864:1,2021-02-01T04:45:00Z,26.3117,-94.4039,11.9,23.8,11111222
Shell,ioos:station:wmo:42864:1,2021-02-01T04:55:00Z,26.3117,-94.4039,11.7,23.9,11111222
Shell,ioos:station:wmo:42864:1,2021-02-01T05:05:00Z,26.3117,-94.4039,11.7,23.9,11111222
Shell,ioos:station:wmo:42864:1,2021-02-01T05:15:00Z,26.3117,-94.4039,11.6,23.8,11111222
Shell,ioos:station:wmo:42864:1,2021-02-01T05:25:00Z,26.3117,-94.4039,11.7,23.8,11111222
Shell,ioos:station:wmo:42864:1,2021-02-01T05:35:00Z,26.3117,-94.4039,11.7,23.8,11111222
Shell,ioos:station:wmo:42864:1,2021-02-01T05:45:00Z,26.3117,-94.4039,11.7,23.7,11111222
Shell,ioos:station:wmo:42864:1,2021-02-01T05:55:00Z,26.3117,-94.4039,11.7,23.7,11111222
Shell,ioos:station:wmo:42864:1,2021-02-01T06:05:00Z,26.3117,-94.4039,11.7,23.7,11111222
Shell,ioos:station:wmo:42864:1,2021-02-01T06:15:00Z,26.3117,-94.4039,11.7,23.7,11111222
Shell,ioos:station:wmo:42864:1,2021-02-01T06:25:00Z,26.3117,-94.4039,11.7,23.7,11111222
Shell,ioos:station:wmo:42864:1,2021-02-01T06:35:00Z,26.3117,-94.4039,11.7,23.7,11111222
Shell,ioos:station:wmo:42864:1,2021-02-01T06:45:00Z,26.3117,-94.4039,11.7,23.6,11111222
Shell,ioos:station:wmo:42864:1,2021-02-01T06:55:00Z,26.3117,-94.4039,11.7,23.6,11111222
Shell,ioos:station:wmo:42864:1,2021-02-01T07:05:00Z,26.3117,-94.4039,11.7,23.6,11111222
Shell,ioos:station:wmo:42864:1,2021-02-01T07:15:00Z,26.3117,-94.4039,11.7,23.6,11111222
Shell,ioos:station:wmo:42864:1,2021-02-01T07:25:00Z,26.3117,-94.4039,11.7,23.6,11111222
Shell,ioos:station:wmo:42864:1,2021-02-01T07:35:00Z,26.3117,-94.4039,11.7,23.6,11111222
Shell,ioos:station:wmo:42864:1,2021-02-01T07:45:00Z,26.3117,-94.4039,11.7,23.6,11111222
Shell,ioos:station:wmo:42864:1,2021-02-01T07:55:00Z,26.3117,-94.4039,11.6,23.6,11111222
Shell,ioos:station:wmo:42864:1,2021-02-01T08:05:00Z,26.3117,-94.4039,11.6,23.6,11111222
Shell,ioos:station:wmo:42864:1,2021-02-01T08:15:00Z,26.3117,-94.4039,11.6,23.6,11111222
Shell,ioos:station:wmo:42864:1,2021-02-01T08:25:00Z,26.3117,-94.4039,11.6,23.5,11111222
Shell,ioos:station:wmo:42864:1,2021-02-01T08:35:00Z,26.3117,-94.4039,11.7,23.5,11111222
Shell,ioos:station:wmo:42864:1,2021-02-01T08:45:00Z,26.3117,-94.4039,11.8,23.5,11111222
Shell,ioos:station:wmo:42864:1,2021-02-01T08:55:00Z,26.3117,-94.4039,11.8,23.5,11111222
Shell,ioos:station:wmo:42864:1,2021-02-01T09:06:00Z,26.3117,-94.4039,11.8,23.5,11111222
Shell,ioos:station:wmo:42864:1,2021-02-01T09:16:00Z,26.3117,-94.4039,11.8,23.5,11111222
Shell,ioos:station:wmo:42864:1,2021-02-01T09:26:00Z,26.3117,-94.4039,11.8,23.5,11111222
Shell,ioos:station:wmo:42864:1,2021-02-01T09:36:00Z,26.3117,-94.4039,11.8,23.5,11111222
Shell,ioos:station:wmo:42864:1,2021-02-01T09:46:00Z,26.3117,-94.4039,11.7,23.5,11111222
Shell,ioos:station:wmo:42864:1,2021-02-01T09:56:00Z,26.3117,-94.4039,11.8,23.5,11111222
Shell,ioos:station:wmo:42864:1,2021-02-01T10:06:00Z,26.3117,-94.4039,11.7,23.5,11111222
Shell,ioos:station:wmo:42864:1,2021-02-01T10:16:00Z,26.3117,-94.4039,11.8,23.5,11111222
Shell,ioos:station:wmo:42864:1,2021-02-01T10:26:00Z,26.3117,-94.4039,11.7,23.5,11111222
Shell,ioos:station:wmo:42864:1,2021-02-01T10:36:00Z,26.3117,-94.4039,11.8,23.5,11111222
Shell,ioos:station:wmo:42864:1,2021-02-01T10:46:00Z,26.3117,-94.4039,11.7,23.5,11111222
Shell,ioos:station:wmo:42864:1,2021-02-01T10:56:00Z,26.3117,-94.4039,11.7,23.5,11111222
Shell,ioos:station:wmo:42864:1,2021-02-01T11:06:00Z,26.3117,-94.4039,11.7,23.5,11111222
Shell,ioos:station:wmo:42864:1,2021-02-01T11:16:00Z,26.3117,-94.4039,11.7,23.6,11111222
Shell,ioos:station:wmo:42864:1,2021-02-01T11:26:00Z,26.3117,-94.4039,11.7,23.6,11111222
Shell,ioos:station:wmo:42864:1,2021-02-01T11:36:00Z,26.3117,-94.4039,11.7,23.6,11111222
Shell,ioos:station:wmo:42864:1,2021-02-01T11:46:00Z,26.3117,-94.4039,11.8,23.6,11111222
Shell,ioos:station:wmo:42864:1,2021-02-01T11:56:00Z,26.3117,-94.4039,11.7,23.7,11111222
Shell,ioos:station:wmo:42864:1,2021-02-01T12:06:00Z,26.3117,-94.4039,11.8,23.7,11111222
Shell,ioos:station:wmo:42864:1,2021-02-01T12:16:00Z,26.3117,-94.4039,11.8,23.7,11111222
Shell,ioos:station:wmo:42864:1,2021-02-01T12:26:00Z,26.3117,-94.4039,11.7,23.7,11111222
Shell,ioos:station:wmo:42864:1,2021-02-01T12:36:00Z,26.3117,-94.4039,11.6,23.7,11111222
Shell,ioos:station:wmo:42864:1,2021-02-01T12:46:00Z,26.3117,-94.4039,11.6,23.8,11111222
Shell,ioos:station:wmo:42864:1,2021-02-01T12:56:00Z,26.3117,-94.4039,11.7,23.8,11111222
Shell,ioos:station:wmo:42864:1,2021-02-01T13:06:00Z,26.3117,-94.4039,11.6,23.8,11111222
Shell,ioos:station:wmo:42864:1,2021-02-01T13:16:00Z,26.3117,-94.4039,11.7,23.8,11111222
Shell,ioos:station:wmo:42864:1,2021-02-01T13:26:00Z,26.3117,-94.4039,11.7,23.8,11111222
Shell,ioos:station:wmo:42864:1,2021-02-01T13:36:00Z,26.3117,-94.4039,11.6,23.8,11111222
Shell,ioos:station:wmo:42864:1,2021-02-01T13:46:00Z,26.3117,-94.4039,11.6,23.8,11111222
Shell,ioos:station:wmo:42864:1,2021-02-01T13:56:00Z,26.3117,-94.4039,11.6,23.8,11111222
Shell,ioos:station:wmo:42864:1,2021-02-01T14:06:00Z,26.3117,-94.4039,11.6,23.8,11111222
Shell,ioos:station:wmo:42864:1,2021-02-01T14:16:00Z,26.3117,-94.4039,11.6,23.7,11111222
Shell,ioos:station:wmo:42864:1,2021-02-01T14:26:00Z,26.3117,-94.4039,11.6,23.7,11111222
Shell,ioos:station:wmo:42864:1,2021-02-01T14:36:00Z,26.3117,-94.4039,11.6,23.7,11111222
Shell,ioos:station:wmo:42864:1,2021-02-01T14:46:00Z,26.3117,-94.4039,11.6,23.7,11111222
Shell,ioos:station:wmo:42864:1,2021-02-01T14:56:00Z,26.3117,-94.4039,11.6,23.7,11111222
Shell,ioos:station:wmo:42864:1,2021-02-01T15:06:00Z,26.3117,-94.4039,11.6,23.7,11111222
Shell,ioos:station:wmo:42864:1,2021-02-01T15:16:00Z,26.3117,-94.4039,11.6,23.7,11111222
Shell,ioos:station:wmo:42864:1,2021-02-01T15:26:00Z,26.3117,-94.4039,11.6,23.7,11111222
Shell,ioos:station:wmo:42864:1,2021-02-01T15:36:00Z,26.3117,-94.4039,11.6,23.7,11111222
Shell,ioos:station:wmo:42864:1,2021-02-01T15:46:00Z,26.3117,-94.4039,11.6,23.7,11111222
Shell,ioos:station:wmo:42864:1,2021-02-01T15:56:00Z,26.3117,-94.4039,11.6,23.7,11111222
Shell,ioos:station:wmo:42864:1,2021-02-01T16:06:00Z,26.3117,-94.4039,11.6,23.6,11111222
Shell,ioos:station:wmo:42864:1,2021-02-01T16:16:00Z,26.3117,-94.4039,11.6,23.6,11111222
Shell,ioos:station:wmo:42864:1,2021-02-01T16:27:00Z,26.3117,-94.4039,11.6,23.6,11111222
Shell,ioos:station:wmo:42864:1,2021-02-01T16:37:00Z,26.3117,-94.4039,11.5,23.6,11111222
Shell,ioos:station:wmo:42864:1,2021-02-01T16:47:00Z,26.3117,-94.4039,11.6,23.6,11111222
Shell,ioos:station:wmo:42864:1,2021-02-01T16:57:00Z,26.3117,-94.4039,11.6,23.6,11111222
Shell,ioos:station:wmo:42864:1,2021-02-01T17:07:00Z,26.3117,-94.4039,11.6,23.6,11111222
Shell,ioos:station:wmo:42864:1,2021-02-01T17:17:00Z,26.3117,-94.4039,11.6,23.6,11111222
Shell,ioos:station:wmo:42864:1,2021-02-01T17:27:00Z,26.3117,-94.4039,11.6,23.5,11111222
Shell,ioos:station:wmo:42864:1,2021-02-01T17:37:00Z,26.3117,-94.4039,11.6,23.5,11111222
Shell,ioos:station:wmo:42864:1,2021-02-01T17:47:00Z,26.3117,-94.4039,11.6,23.5,11111222
Shell,ioos:station:wmo:42864:1,2021-02-01T17:57:00Z,26.3117,-94.4039,11.6,23.5,11111222
Shell,ioos:station:wmo:42864:1,2021-02-01T18:07:00Z,26.3117,-94.4039,11.6,23.5,11111222
Shell,ioos:station:wmo:42864:1,2021-02-01T18:17:00Z,26.3117,-94.4039,11.5,23.5,11111222
Shell,ioos:station:wmo:42864:1,2021-02-01T18:27:00Z,26.3117,-94.4039,11.6,23.5,11111222
Shell,ioos:station:wmo:42864:1,2021-02-01T18:37:00Z,26.3117,-94.4039,11.5,23.5,11111222
Shell,ioos:station:wmo:42864:1,2021-02-01T18:47:00Z,26.3117,-94.4039,11.5,23.5,11111222
Shell,ioos:station:wmo:42864:1,2021-02-01T18:57:00Z,26.3117,-94.4039,11.7,23.5,11111222
Shell,ioos:station:wmo:42864:1,2021-02-01T19:07:00Z,26.3117,-94.4039,11.7,23.6,11111222
Shell,ioos:station:wmo:42864:1,2021-02-01T19:17:00Z,26.3117,-94.4039,11.7,23.6,11111222
Shell,ioos:station:wmo:42864:1,2021-02-01T19:27:00Z,26.3117,-94.4039,11.8,23.7,11111222
Shell,ioos:station:wmo:42864:1,2021-02-01T19:37:00Z,26.3117,-94.4039,11.8,23.7,11111222
Shell,ioos:station:wmo:42864:1,2021-02-01T19:47:00Z,26.3117,-94.4039,11.8,23.8,11111222
Shell,ioos:station:wmo:42864:1,2021-02-01T19:57:00Z,26.3117,-94.4039,11.8,23.8,11111222
Shell,ioos:station:wmo:42864:1,2021-02-01T20:07:00Z,26.3117,-94.4039,11.8,23.9,11111222
Shell,ioos:station:wmo:42864:1,2021-02-01T20:17:00Z,26.3117,-94.4039,11.8,23.9,11111222
Shell,ioos:station:wmo:42864:1,2021-02-01T20:27:00Z,26.3117,-94.4039,11.8,23.8,11111222
Shell,ioos:station:wmo:42864:1,2021-02-01T20:37:00Z,26.3117,-94.4039,11.7,23.8,11111222
Shell,ioos:station:wmo:42864:1,2021-02-01T20:47:00Z,26.3117,-94.4039,11.8,23.8,11111222
Shell,ioos:station:wmo:42864:1,2021-02-01T20:57:00Z,26.3117,-94.4039,11.7,23.8,11111222
Shell,ioos:station:wmo:42864:1,2021-02-01T21:07:00Z,26.3117,-94.4039,11.7,23.8,11111222
Shell,ioos:station:wmo:42864:1,2021-02-01T21:17:00Z,26.3117,-94.4039,11.8,23.7,11111222
Shell,ioos:station:wmo:42864:1,2021-02-01T21:27:00Z,26.3117,-94.4039,11.8,23.7,11111222
Shell,ioos:station:wmo:42864:1,2021-02-01T21:37:00Z,26.3117,-94.4039,11.8,23.7,11111222
Shell,ioos:station:wmo:42864:1,2021-02-01T21:47:00Z,26.3117,-94.4039,11.8,23.7,11111222
Shell,ioos:station:wmo:42864:1,2021-02-01T21:57:00Z,26.3117,-94.4039,11.7,23.7,11111222
Shell,ioos:station:wmo:42864:1,2021-02-01T22:07:00Z,26.3117,-94.4039,11.7,23.7,11111222
Shell,ioos:station:wmo:42864:1,2021-02-01T22:17:00Z,26.3117,-94.4039,11.7,23.7,11111222
Shell,ioos:station:wmo:42864:1,2021-02-01T22:27:00Z,26.3117,-94.4039,11.7,23.7,11111222
Shell,ioos:station:wmo:42864:1,2021-02-01T22:37:00Z,26.3117,-94.4039,11.7,23.7,11111222
Shell,ioos:station:wmo:42864:1,2021-02-01T22:47:00Z,26.3117,-94.4039,11.7,23.7,11111222
Shell,ioos:station:wmo:42864:1,2021-02-01T22:57:00Z,26.3117,-94.4039,11.7,23.7,11111222
Shell,ioos:station:wmo:42864:1,2021-02-01T23:07:00Z,26.3117,-94.4039,11.7,23.6,11111222
Shell,ioos:station:wmo:42864:1,2021-02-01T23:17:00Z,26.3117,-94.4039,11.7,23.6,11111222
Shell,ioos:station:wmo:42864:1,2021-02-01T23:27:00Z,26.3117,-94.4039,11.7,23.6,11111222
Shell,ioos:station:wmo:42864:1,2021-02-01T23:37:00Z,26.3117,-94.4039,11.7,23.6,11111222
Shell,ioos:station:wmo:42864:1,2021-02-01T23:48:00Z,26.3117,-94.4039,11.7,23.6,11111222
Shell,ioos:station:wmo:42864:1,2021-02-01T23:58:00Z,26.3117,-94.4039,11.7,23.6,11111222
Shell,ioos:station:wmo:42864:1,2021-02-02T00:08:00Z,26.3117,-94.4039,11.7,23.6,11111222
Shell,ioos:station:wmo:42864:1,2021-02-02T00:18:00Z,26.3117,-94.4039,11.7,23.6,11111222
Shell,ioos:station:wmo:42864:1,2021-02-02T00:28:00Z,26.3117,-94.4039,11.7,23.6,11111222
Shell,ioos:station:wmo:42864:1,2021-02-02T00:38:00Z,26.3117,-94.4039,11.7,23.5,11111222
Shell,ioos:station:wmo:42864:1,2021-02-02T00:48:00Z,26.3117,-94.4039,11.7,23.5,11111222
Shell,ioos:station:wmo:42864:1,2021-02-02T00:58:00Z,26.3117,-94.4039,11.7,23.5,11111222
Shell,ioos:station:wmo:42864:1,2021-02-02T01:08:00Z,26.3117,-94.4039,11.6,23.5,11111222
Shell,ioos:station:wmo:42864:1,2021-02-02T01:18:00Z,26.3117,-94.4039,11.6,23.5,11111222
Shell,ioos:station:wmo:42864:1,2021-02-02T01:28:00Z,26.3117,-94.4039,11.6,23.5,11111222
Shell,ioos:station:wmo:42864:1,2021-02-02T01:38:00Z,26.3117,-94.4039,11.7,23.5,11111222
Shell,ioos:station:wmo:42864:1,2021-02-02T01:48:00Z,26.3117,-94.4039,11.6,23.4,11111222
Shell,ioos:station:wmo:42864:1,2021-02-02T01:58:00Z,26.3117,-94.4039,11.6,23.4,11111222
Shell,ioos:station:wmo:42864:1,2021-02-02T02:08:00Z,26.3117,-94.4039,11.6,23.4,11111222
Shell,ioos:station:wmo:42864:1,2021-02-02T02:18:00Z,26.3117,-94.4039,11.6,23.4,11111222
Shell,ioos:station:wmo:42864:1,2021-02-02T02:28:00Z,26.3117,-94.4039,11.6,23.4,11111222
Shell,ioos:station:wmo:42864:1,2021-02-02T02:38:00Z,26.3117,-94.4039,11.6,23.4,11111222
Shell,ioos:station:wmo:42864:1,2021-02-02T02:48:00Z,26.3117,-94.4039,11.6,23.4,11111222
Shell,ioos:station:wmo:42864:1,2021-02-02T02:58:00Z,26.3117,-94.4039,11.6,23.4,11111222
Shell,ioos:station:wmo:42864:1,2021-02-02T03:08:00Z,26.3117,-94.4039,11.6,23.4,11111222
Shell,ioos:station:wmo:42864:1,2021-02-02T03:18:00Z,26.3117,-94.4039,11.6,23.4,11111222
Shell,ioos:station:wmo:42864:1,2021-02-02T03:28:00Z,26.3117,-94.4039,11.6,23.4,11111222
Shell,ioos:station:wmo:42864:1,2021-02-02T03:38:00Z,26.3117,-94.4039,11.6,23.4,11111222
Shell,ioos:station:wmo:42864:1,2021-02-02T03:48:00Z,26.3117,-94.4039,11.6,23.4,11111222
Shell,ioos:station:wmo:42864:1,2021-02-02T03:58:00Z,26.3117,-94.4039,11.6,23.4,11111222
Shell,ioos:station:wmo:42864:1,2021-02-02T04:08:00Z,26.3117,-94.4039,11.6,23.4,11111222
Shell,ioos:station:wmo:42864:1,2021-02-02T04:18:00Z,26.3117,-94.4039,11.6,23.4,11111222
Shell,ioos:station:wmo:42864:1,2021-02-02T04:28:00Z,26.3117,-94.4039,11.6,23.4,11111222
Shell,ioos:station:wmo:42864:1,2021-02-02T04:38:00Z,26.3117,-94.4039,11.5,23.4,11111222
Shell,ioos:station:wmo:42864:1,2021-02-02T04:48:00Z,26.3117,-94.4039,11.6,23.4,11111222
Shell,ioos:station:wmo:42864:1,2021-02-02T04:58:00Z,26.3117,-94.4039,11.6,23.4,11111222
Shell,ioos:station:wmo:42864:1,2021-02-02T05:08:00Z,26.3117,-94.4039,11.5,23.4,11111222
Shell,ioos:station:wmo:42864:1,2021-02-02T05:18:00Z,26.3117,-94.4039,11.6,23.4,11111222
Shell,ioos:station:wmo:42864:1,2021-02-02T05:28:00Z,26.3117,-94.4039,11.6,23.4,11111222
Shell,ioos:station:wmo:42864:1,2021-02-02T05:38:00Z,26.3117,-94.4039,11.6,23.4,11111222
Shell,ioos:station:wmo:42864:1,2021-02-02T05:48:00Z,26.3117,-94.4039,11.6,23.4,11111222
Shell,ioos:station:wmo:42864:1,2021-02-02T05:58:00Z,26.3117,-94.4039,11.6,23.4,11111222
Shell,ioos:station:wmo:42864:1,2021-02-02T06:08:00Z,26.3117,-94.4039,11.6,23.4,11111222
Shell,ioos:station:wmo:42864:1,2021-02-02T06:18:00Z,26.3117,-94.4039,11.6,23.4,11111222
Shell,ioos:station:wmo:42864:1,2021-02-02T06:28:00Z,26.3117,-94.4039,11.6,23.4,11111222
Shell,ioos:station:wmo:42864:1,2021-02-02T06:38:00Z,26.3117,-94.4039,11.6,23.4,11111222
Shell,ioos:station:wmo:42864:1,2021-02-02T06:48:00Z,26.3117,-94.4039,11.6,23.4,11111222
Shell,ioos:station:wmo:42864:1,2021-02-02T06:58:00Z,26.3117,-94.4039,11.6,23.4,11111222
Shell,ioos:station:wmo:42864:1,2021-02-02T07:09:00Z,26.3117,-94.4039,11.6,23.4,11111222
Shell,ioos:station:wmo:42864:1,2021-02-02T07:19:00Z,26.3117,-94.4039,11.5,23.4,11111222
Shell,ioos:station:wmo:42864:1,2021-02-02T07:29:00Z,26.3117,-94.4039,11.5,23.4,11111222
Shell,ioos:station:wmo:42864:1,2021-02-02T07:39:00Z,26.3117,-94.4039,11.4,23.4,11111222
Shell,ioos:station:wmo:42864:1,2021-02-02T07:49:00Z,26.3117,-94.4039,11.4,23.4,11111222
Shell,ioos:station:wmo:42864:1,2021-02-02T07:59:00Z,26.3117,-94.4039,11.4,23.4,11111222
Shell,ioos:station:wmo:42864:1,2021-02-02T08:09:00Z,26.3117,-94.4039,11.4,23.3,11111222
Shell,ioos:station:wmo:42864:1,2021-02-02T08:19:00Z,26.3117,-94.4039,11.4,23.3,11111222
Shell,ioos:station:wmo:42864:1,2021-02-02T08:29:00Z,26.3117,-94.4039,11.6,23.3,11111222
Shell,ioos:station:wmo:42864:1,2021-02-02T08:39:00Z,26.3117,-94.4039,11.7,23.3,11111222
Shell,ioos:station:wmo:42864:1,2021-02-02T08:49:00Z,26.3117,-94.4039,11.7,23.3,11111222
Shell,ioos:station:wmo:42864:1,2021-02-02T08:59:00Z,26.3117,-94.4039,11.7,23.3,11111222
Shell,ioos:station:wmo:42864:1,2021-02-02T09:09:00Z,26.3117,-94.4039,11.7,23.3,11111222
Shell,ioos:station:wmo:42864:1,2021-02-02T09:19:00Z,26.3117,-94.4039,11.7,23.3,11111222
Shell,ioos:station:wmo:42864:1,2021-02-02T09:29:00Z,26.3117,-94.4039,11.7,23.3,11111222
Shell,ioos:station:wmo:42864:1,2021-02-02T09:39:00Z,26.3117,-94.4039,11.7,23.3,11111222
Shell,ioos:station:wmo:42864:1,2021-02-02T09:49:00Z,26.3117,-94.4039,11.7,23.3,11111222
Shell,ioos:station:wmo:42864:1,2021-02-02T09:59:00Z,26.3117,-94.4039,11.7,23.3,11111222
Shell,ioos:station:wmo:42864:1,2021-02-02T10:09:00Z,26.3117,-94.4039,11.7,23.3,11111222
Shell,ioos:station:wmo:42864:1,2021-02-02T10:19:00Z,26.3117,-94.4039,11.8,23.3,11111222
Shell,ioos:station:wmo:42864:1,2021-02-02T10:29:00Z,26.3117,-94.4039,11.9,23.3,11111222
Shell,ioos:station:wmo:42864:1,2021-02-02T10:39:00Z,26.3117,-94.4039,11.8,23.3,11111222
Shell,ioos:station:wmo:42864:1,2021-02-02T10:49:00Z,26.3117,-94.4039,11.9,23.3,11111222
Shell,ioos:station:wmo:42864:1,2021-02-02T10:59:00Z,26.3117,-94.4039,11.9,23.3,11111222
Shell,ioos:station:wmo:42864:1,2021-02-02T11:09:00Z,26.3117,-94.4039,11.9,23.3,11111222
Shell,ioos:station:wmo:42864:1,2021-02-02T11:19:00Z,26.3117,-94.4039,11.9,23.2,11111222
Shell,ioos:station:wmo:42864:1,2021-02-02T11:29:00Z,26.3117,-94.4039,11.9,23.2,11111222
Shell,ioos:station:wmo:42864:1,2021-02-02T11:39:00Z,26.3117,-94.4039,11.9,23.2,11111222
Shell,ioos:station:wmo:42864:1,2021-02-02T11:49:00Z,26.3117,-94.4039,11.9,23.2,11111222
Shell,ioos:station:wmo:42864:1,2021-02-02T11:59:00Z,26.3117,-94.4039,11.9,23.2,11111222
Shell,ioos:station:wmo:42864:1,2021-02-02T12:09:00Z,26.3117,-94.4039,11.9,23.2,11111222
Shell,ioos:station:wmo:42864:1,2021-02-02T12:19:00Z,26.3117,-94.4039,11.9,23.2,11111222
Shell,ioos:station:wmo:42864:1,2021-02-02T12:29:00Z,26.3117,-94.4039,11.8,23.2,11111222
Shell,ioos:station:wmo:42864:1,2021-02-02T12:39:00Z,26.3117,-94.4039,11.8,23.2,11111222
Shell,ioos:station:wmo:42864:1,2021-02-02T12:49:00Z,26.3117,-94.4039,11.8,23.2,11111222
Shell,ioos:station:wmo:42864:1,2021-02-02T12:59:00Z,26.3117,-94.4039,11.8,23.2,11111222
Shell,ioos:station:wmo:42864:1,2021-02-02T13:09:00Z,26.3117,-94.4039,11.9,23.1,11111222
Shell,ioos:station:wmo:42864:1,2021-02-02T13:19:00Z,26.3117,-94.4039,11.9,23.1,11111222
Shell,ioos:station:wmo:42864:1,2021-02-02T13:29:00Z,26.3117,-94.4039,11.9,23.1,11111222
Shell,ioos:station:wmo:42864:1,2021-02-02T13:39:00Z,26.3117,-94.4039,11.9,23.1,11111222
Shell,ioos:station:wmo:42864:1,2021-02-02T13:49:00Z,26.3117,-94.4039,11.7,23.1,11111222
Shell,ioos:station:wmo:42864:1,2021-02-02T13:59:00Z,26.3117,-94.4039,11.7,23.1,11111222
Shell,ioos:station:wmo:42864:1,2021-02-02T14:09:00Z,26.3117,-94.4039,11.8,23.1,11111222
Shell,ioos:station:wmo:42864:1,2021-02-02T14:19:00Z,26.3117,-94.4039,11.8,23.1,11111222
Shell,ioos:station:wmo:42864:1,2021-02-02T14:30:00Z,26.3117,-94.4039,11.8,23.1,11111222
Shell,ioos:station:wmo:42864:1,2021-02-02T14:40:00Z,26.3117,-94.4039,11.8,23.1,11111222
Shell,ioos:station:wmo:42864:1,2021-02-02T14:50:00Z,26.3117,-94.4039,11.8,23.1,11111222
Shell,ioos:station:wmo:42864:1,2021-02-02T15:00:00Z,26.3117,-94.4039,11.8,23.1,11111222
Shell,ioos:station:wmo:42864:1,2021-02-02T15:10:00Z,26.3117,-94.4039,11.8,23.1,11111222
Shell,ioos:station:wmo:42864:1,2021-02-02T15:20:00Z,26.3117,-94.4039,11.8,23.1,11111222
Shell,ioos:station:wmo:42864:1,2021-02-02T15:30:00Z,26.3117,-94.4039,11.8,23.0,11111222
Shell,ioos:station:wmo:42864:1,2021-02-02T15:40:00Z,26.3117,-94.4039,11.8,23.0,11111222
Shell,ioos:station:wmo:42864:1,2021-02-02T15:50:00Z,26.3117,-94.4039,11.8,23.0,11111222
Shell,ioos:station:wmo:42864:1,2021-02-02T16:00:00Z,26.3117,-94.4039,11.8,23.0,11111222
Shell,ioos:station:wmo:42864:1,2021-02-02T16:10:00Z,26.3117,-94.4039,11.9,23.0,11111222
Shell,ioos:station:wmo:42864:1,2021-02-02T16:20:00Z,26.3117,-94.4039,11.9,23.0,11111222
Shell,ioos:station:wmo:42864:1,2021-02-02T16:30:00Z,26.3117,-94.4039,11.9,23.0,11111222
Shell,ioos:station:wmo:42864:1,2021-02-02T16:40:00Z,26.3117,-94.4039,11.9,22.9,11111222
Shell,ioos:station:wmo:42864:1,2021-02-02T16:50:00Z,26.3117,-94.4039,11.8,22.9,11111222
Shell,ioos:station:wmo:42864:1,2021-02-02T17:00:00Z,26.3117,-94.4039,11.9,22.9,11111222
Shell,ioos:station:wmo:42864:1,2021-02-02T17:10:00Z,26.3117,-94.4039,11.9,22.9,11111222
Shell,ioos:station:wmo:42864:1,2021-02-02T17:20:00Z,26.3117,-94.4039,11.9,22.9,11111222
Shell,ioos:station:wmo:42864:1,2021-02-02T17:30:00Z,26.3117,-94.4039,11.9,22.8,11111222
Shell,ioos:station:wmo:42864:1,2021-02-02T17:40:00Z,26.3117,-94.4039,11.9,22.8,11111222
Shell,ioos:station:wmo:42864:1,2021-02-02T17:50:00Z,26.3117,-94.4039,11.9,22.8,11111222
Shell,ioos:station:wmo:42864:1,2021-02-02T18:00:00Z,26.3117,-94.4039,11.9,22.8,11111222
Shell,ioos:station:wmo:42864:1,2021-02-02T18:10:00Z,26.3117,-94.4039,11.9,22.7,11111222
Shell,ioos:station:wmo:42864:1,2021-02-02T18:20:00Z,26.3117,-94.4039,11.9,22.7,11111222
Shell,ioos:station:wmo:42864:1,2021-02-02T18:30:00Z,26.3117,-94.4039,11.9,22.7,11111222
Shell,ioos:station:wmo:42864:1,2021-02-02T18:40:00Z,26.3117,-94.4039,11.9,22.7,11111222
Shell,ioos:station:wmo:42864:1,2021-02-02T18:50:00Z,26.3117,-94.4039,11.9,22.7,11111222
Shell,ioos:station:wmo:42864:1,2021-02-02T19:00:00Z,26.3117,-94.4039,11.9,22.6,11111222
Shell,ioos:station:wmo:42864:1,2021-02-02T19:10:00Z,26.3117,-94.4039,11.9,22.5,11111222
Shell,ioos:station:wmo:42864:1,2021-02-02T19:20:00Z,26.3117,-94.4039,11.9,22.5,11111222
Shell,ioos:station:wmo:42864:1,2021-02-02T19:30:00Z,26.3117,-94.4039,11.9,22.5,11111222
Shell,ioos:station:wmo:42864:1,2021-02-02T19:40:00Z,26.3117,-94.4039,12.0,22.5,11111222
Shell,ioos:station:wmo:42864:1,2021-02-02T19:50:00Z,26.3117,-94.4039,11.9,22.4,11111222
Shell,ioos:station:wmo:42864:1,2021-02-02T20:00:00Z,26.3117,-94.4039,11.9,22.4,11111222
Shell,ioos:station:wmo:42864:1,2021-02-02T20:10:00Z,26.3117,-94.4039,12.0,22.4,11111222
Shell,ioos:station:wmo:42864:1,2021-02-02T20:20:00Z,26.3117,-94.4039,12.0,22.4,11111222
Shell,ioos:station:wmo:42864:1,2021-02-02T20:30:00Z,26.3117,-94.4039,12.0,22.4,11111222
Shell,ioos:station:wmo:42864:1,2021-02-02T20:40:00Z,26.3117,-94.4039,12.0,22.4,11111222